This is the latest recevied weather packets stored in our database for station/object N7SWJ. If no packets are shown the sender has not sent any weather packets the latest 10 day(s).
| Time | Temp. | Humidity | Pressure | Rain* | Wind** | Luminosity | Snow |
|---|---|---|---|---|---|---|---|
| 1777987090 | 1.11° C | 94% | 1017.3 hPa | 3.05 mm | - | 11 W/m² | - |
| 1777986788 | 1.67° C | 94% | 1017 hPa | 4.83 mm | - | 10 W/m² | - |
| 1777986485 | 1.67° C | 94% | 1017.4 hPa | 4.32 mm | - | 7 W/m² | - |
| 1777986183 | 1.67° C | 94% | 1016.9 hPa | 3.05 mm | - | 6 W/m² | - |
| 1777985880 | 2.22° C | 94% | 1016.9 hPa | 3.56 mm | - | 7 W/m² | - |
| 1777985578 | 2.22° C | 94% | 1016.8 hPa | 3.05 mm | - | 6 W/m² | - |
| 1777985274 | 2.22° C | 94% | 1016.7 hPa | 3.05 mm | - | 4 W/m² | - |
| 1777984971 | 2.78° C | 94% | 1016.8 hPa | 1.78 mm | - | 3 W/m² | - |
| 1777984666 | 2.22° C | 94% | 1016.7 hPa | 1.27 mm | - | 4 W/m² | - |
| 1777984363 | 2.78° C | 94% | 1016.8 hPa | 1.27 mm | - | 4 W/m² | - |
| 1777984060 | 2.22° C | 94% | 1016.6 hPa | 1.78 mm | - | 4 W/m² | - |
| 1777983757 | 2.22° C | 94% | 1016.6 hPa | 1.78 mm | - | 4 W/m² | - |
| 1777983453 | 2.78° C | 94% | 1016.5 hPa | 0 mm | - | 4 W/m² | - |
| 1777983150 | 2.22° C | 94% | 1016.5 hPa | 0 mm | - | 5 W/m² | - |
| 1777982847 | 2.22° C | 94% | 1016.5 hPa | 0 mm | - | 5 W/m² | - |
| 1777982543 | 2.22° C | 94% | 1016.5 hPa | 0 mm | - | 3 W/m² | - |
| 1777982241 | 2.78° C | 94% | 1016.5 hPa | 0 mm | - | 1 W/m² | - |
| 1777981939 | 2.78° C | 94% | 1016.1 hPa | 1.27 mm | - | 1 W/m² | - |
| 1777981636 | 2.78° C | 94% | 1016.3 hPa | 1.27 mm | - | 0 W/m² | - |
| 1777981332 | 2.78° C | 94% | 1016.3 hPa | 0 mm | - | 0 W/m² | - |
| 1777981029 | 2.78° C | 93% | 1016.2 hPa | 0 mm | - | 0 W/m² | - |
| 1777980726 | 2.78° C | 93% | 1016 hPa | 0 mm | - | 0 W/m² | - |
| 1777980422 | 2.78° C | 93% | 1015.7 hPa | 0 mm | - | 0 W/m² | - |
| 1777980120 | 2.78° C | 93% | 1015.9 hPa | 0 mm | - | 0 W/m² | - |
| 1777979819 | 2.78° C | 93% | 1015.5 hPa | 0 mm | - | 0 W/m² | - |
* Rain latest hour (hover to see other rain measurements)
** Current wind speed in m/s (hover to see current wind gust speed)